Theta_e
277 277 277 277 277 277 279 278 278 278 277 277 277 277 276 275 273 273 274 276 278 282 286 285 289 293 295 296 298 298 298 297 297 300 300 301 302 304 307 311 314 317 319 318 318 317 317 317 318 319 321 322 322 324 325 326 325 325 325 326 327 328 328 328 327 328 327 327 327 328 327 327 329 328
277 277 277 279 277 278 277 276 276 276 276 276 276 276 277 277 274 274 272 274 278 280 284 286 287 290 292 296 296 297 298 297 300 302 302 304 309 306 305 308 311 313 316 318 319 318 317 317 317 317 319 321 322 324 324 324 324 325 325 328 328 329 328 328 327 327 326 326 327 327 327 327 328 328
276 276 276 276 275 276 275 275 275 275 275 275 275 275 276 275 275 274 274 271 275 280 279 283 287 288 290 293 295 297 298 298 298 300 302 302 299 298 300 302 308 311 313 316 317 318 318 317 316 316 317 320 322 324 323 322 323 324 325 327 328 328 327 327 325 326 326 326 326 327 327 327 327 328
275 275 274 274 274 274 274 274 274 274 274 275 274 274 274 274 274 274 273 272 272 278 280 282 285 288 289 292 294 295 297 298 295 300 299 299 296 300 301 302 303 307 311 314 316 316 317 317 317 317 317 319 321 321 321 321 322 323 324 325 327 327 324 324 323 324 324 324 324 326 326 326 326 326
275 274 273 273 273 274 273 273 273 274 274 274 274 274 274 273 274 273 273 272 273 277 281 282 284 287 288 288 292 294 295 297 298 296 299 299 300 301 303 304 301 305 308 311 314 316 316 317 317 316 316 317 320 320 322 321 320 321 323 324 325 326 326 325 324 322 322 323 323 324 324 324 325 324
274 273 272 272 273 273 273 273 273 273 273 273 273 273 273 273 274 276 274 273 273 274 279 281 284 285 288 287 292 293 294 295 297 297 298 300 300 300 302 305 306 305 307 310 313 315 315 316 317 316 316 317 318 320 321 319 318 319 321 320 320 320 323 324 324 322 320 323 323 324 324 323 324 324
273 272 272 272 272 273 272 272 272 273 273 273 273 273 273 273 273 274 275 275 275 276 278 281 282 285 288 289 290 293 295 296 297 297 298 299 300 302 302 303 305 304 307 310 313 314 315 315 315 315 315 315 316 316 318 318 316 317 318 318 319 318 318 319 320 320 320 322 324 324 323 323 324 324
271 271 271 271 272 272 271 271 272 272 273 273 273 273 274 274 274 274 275 275 275 276 277 280 282 285 286 288 291 294 296 296 297 297 299 300 300 300 301 304 305 305 307 309 311 313 314 314 314 314 314 315 315 315 315 315 315 315 315 316 316 316 317 317 318 318 319 320 323 324 323 323 324 324
270 270 271 271 271 271 271 271 272 272 272 272 273 273 274 274 275 275 276 275 276 275 277 280 283 285 286 289 292 295 293 296 295 297 297 297 297 298 300 303 305 302 304 306 308 311 313 313 314 314 314 314 314 315 315 315 314 314 314 314 314 315 316 315 316 315 315 317 319 321 323 323 323 323
270 270 271 271 271 271 271 271 272 273 273 273 273 273 273 273 274 273 274 277 278 277 277 279 281 285 286 287 290 294 294 294 293 295 296 297 298 298 299 301 303 305 307 310 311 309 311 310 312 313 313 314 314 314 314 314 313 311 311 312 312 314 315 314 314 314 314 315 315 317 320 323 323 322
271 271 271 271 272 272 272 272 272 272 273 273 273 273 273 274 274 273 273 274 276 278 279 280 282 283 286 288 287 292 294 295 294 293 294 293 296 298 298 299 302 305 307 309 308 312 313 311 312 311 311 312 312 313 313 313 313 310 310 310 311 312 313 313 313 313 313 313 314 315 315 318 322 322
271 271 271 272 272 272 273 273 273 273 272 274 274 274 274 274 273 273 274 274 275 276 279 280 281 284 285 288 290 293 294 293 293 294 293 292 292 294 298 300 300 303 307 311 312 310 310 311 310 310 310 310 311 311 311 310 309 308 309 310 311 312 312 312 312 312 312 312 313 314 314 315 317 321
272 273 273 273 273 273 275 276 276 276 276 274 273 274 274 274 273 273 274 274 274 274 276 278 281 283 285 287 289 289 290 291 290 293 295 293 293 295 296 299 301 303 305 310 313 313 314 314 314 315 314 314 310 310 308 310 305 305 309 310 311 311 311 312 312 311 311 311 312 313 313 313 314 315
273 273 274 274 277 277 276 276 277 278 279 279 277 275 275 274 274 274 274 274 274 275 276 277 279 282 284 286 288 289 290 293 294 293 293 292 293 294 295 297 299 302 305 308 310 312 315 314 314 315 315 315 309 315 313 315 311 306 309 310 311 311 311 311 311 311 311 311 311 312 312 312 313 313
274 274 275 275 276 277 277 276 278 279 279 279 279 280 280 279 276 275 275 275 275 275 276 277 278 279 282 287 289 289 291 293 293 293 294 293 293 293 292 291 296 301 305 308 309 310 313 314 312 313 314 315 313 314 314 309 307 308 310 310 310 310 310 310 310 310 310 310 311 311 311 311 312 312
274 274 275 275 276 276 276 276 276 277 278 279 280 280 280 281 281 281 278 276 276 276 276 277 278 279 281 285 289 289 291 291 292 292 292 292 292 293 293 294 294 300 308 309 308 308 310 313 313 312 314 315 314 314 311 307 307 309 310 309 310 309 309 310 310 310 310 310 310 310 311 311 311 311
273 274 274 274 275 276 278 277 277 277 277 279 280 280 280 280 281 281 282 282 279 278 277 277 278 280 282 284 287 290 291 292 290 290 289 290 290 292 294 295 296 299 306 309 307 306 308 311 309 312 313 314 315 313 308 307 307 308 309 309 309 309 309 309 309 309 309 309 310 310 310 310 310 310
273 273 273 273 274 275 275 276 276 277 277 277 277 277 277 277 278 280 280 280 281 280 279 279 279 281 283 283 287 290 291 290 288 287 286 287 286 287 288 292 295 300 305 307 307 304 306 309 311 310 312 313 314 314 309 307 308 309 309 309 309 309 309 309 309 309 309 309 309 310 310 309 309 309
273 273 273 273 273 274 275 276 276 276 277 277 277 276 276 277 277 277 277 277 277 278 279 280 281 282 284 285 286 288 290 290 289 289 287 287 287 287 289 290 292 295 300 305 307 300 304 309 309 310 311 312 313 313 308 307 308 309 308 308 308 308 308 308 308 308 309 309 309 309 309 309 308 308
273 274 273 273 273 274 274 277 279 279 278 277 276 276 276 276 276 277 278 280 280 280 281 283 284 284 285 287 286 288 290 290 289 288 288 287 286 286 285 286 290 292 297 304 307 301 303 307 309 308 311 312 311 311 310 307 308 308 308 308 308 308 308 308 308 308 308 309 309 309 309 308 308 308
273 274 274 274 274 274 274 277 279 280 280 277 277 276 276 276 276 276 277 280 281 283 283 284 285 287 288 289 290 291 291 289 289 287 285 285 286 285 284 285 288 290 296 302 308 304 302 305 308 306 308 309 307 309 310 310 307 308 308 308 308 308 308 308 308 308 308 308 308 308 308 308 307 305
274 274 276 276 275 274 275 278 280 280 279 277 277 276 276 276 275 276 277 277 278 281 284 285 286 287 289 289 290 290 291 291 290 287 284 286 286 285 285 284 286 289 294 302 307 304 303 305 306 305 305 304 306 308 309 309 309 306 307 307 307 307 307 307 308 308 308 308 308 308 308 307 306 308
273 273 275 276 276 276 277 279 280 281 280 277 277 277 276 275 275 276 277 277 277 279 281 282 285 286 287 288 289 289 289 290 289 289 287 286 285 284 285 285 286 286 289 302 306 304 302 303 304 304 302 300 300 306 306 307 309 310 309 309 310 306 307 307 307 307 307 308 308 308 307 306 307 311
272 273 273 274 277 278 279 279 280 281 281 279 278 278 276 275 275 277 277 278 278 280 282 283 284 286 287 288 288 289 289 289 289 289 289 288 287 286 286 286 286 285 290 301 303 305 303 304 302 306 304 299 298 301 304 306 308 308 309 309 309 305 305 305 306 306 307 307 307 307 307 306 308 312
271 271 272 273 276 278 278 279 280 280 281 281 279 279 278 277 278 279 277 278 280 279 280 281 282 283 285 286 287 287 287 287 287 288 288 288 289 288 286 286 286 287 290 298 302 305 302 303 302 303 303 303 302 301 303 305 306 306 307 309 309 309 308 309 307 309 306 306 307 307 306 306 308 311
271 271 272 272 274 277 278 278 279 280 281 281 279 279 282 282 282 279 279 279 279 280 280 281 281 282 283 284 285 285 286 286 287 288 288 289 290 291 291 289 287 287 289 298 301 306 303 302 303 302 301 301 300 301 301 302 304 305 307 309 309 308 308 308 308 309 310 309 309 308 308 306 307 308
270 271 272 272 275 277 278 279 279 280 281 280 279 282 283 283 283 282 280 280 280 280 281 281 281 282 282 283 284 285 285 286 287 288 288 289 290 291 292 294 294 292 294 298 298 303 304 303 302 302 301 301 300 299 300 300 300 303 305 306 307 308 308 309 308 308 309 309 309 306 305 305 306 307
270 270 271 273 277 278 278 279 280 281 281 279 281 282 283 283 282 281 280 280 280 280 280 280 280 281 283 284 284 285 286 286 287 288 289 289 291 292 293 294 292 293 295 297 299 302 304 304 303 303 304 301 300 299 298 301 301 302 303 304 305 306 307 308 307 305 305 308 308 307 306 306 307 308
271 274 276 276 276 276 277 278 281 280 280 281 281 282 283 282 281 280 280 280 280 280 279 280 281 281 283 284 285 287 287 288 288 287 288 288 289 291 292 293 293 293 296 297 299 300 304 303 303 301 301 302 301 301 301 299 300 302 303 302 301 303 305 308 308 306 305 307 307 306 306 306 306 305
274 274 274 274 274 274 274 274 277 277 278 280 281 282 283 282 281 280 280 280 280 280 280 281 281 282 284 285 287 288 288 287 286 287 287 287 288 290 291 292 293 294 295 296 298 297 299 304 303 301 300 301 302 300 301 300 299 302 300 302 303 301 304 306 307 306 303 304 305 305 307 307 306 304
269 269 270 270 273 273 274 274 275 278 280 280 281 282 282 281 281 281 281 280 280 280 281 281 282 284 285 287 287 286 286 286 287 287 287 288 289 291 292 292 292 294 295 294 296 295 295 298 301 302 300 300 300 299 299 300 300 300 300 303 301 299 301 304 305 305 305 304 304 304 305 305 304 302
268 267 269 270 269 269 269 270 271 272 274 278 281 281 282 282 282 282 282 283 282 283 284 284 285 285 285 285 286 286 286 286 287 288 288 288 289 291 292 292 292 294 295 292 293 295 295 296 297 299 300 300 299 298 298 300 299 300 300 300 301 303 302 303 304 304 303 303 302 301 302 303 303 304
267 266 266 266 267 266 266 267 267 268 270 271 272 275 280 282 282 282 282 281 281 283 283 282 283 284 285 285 286 286 286 286 286 288 289 290 291 292 293 292 293 293 292 293 294 293 293 295 294 296 297 298 299 298 298 298 299 300 300 299 300 299 301 303 303 300 299 300 300 300 299 301 302 304
265 265 265 265 265 265 265 265 266 266 267 268 269 271 273 275 279 282 282 282 283 283 283 283 283 283 284 284 285 285 285 286 287 288 289 290 292 292 292 293 293 293 293 294 295 295 293 291 292 293 292 291 292 294 298 299 298 299 299 300 300 299 300 302 301 298 299 301 300 299 299 299 301 303
263 263 263 264 265 265 265 265 265 266 266 267 267 268 270 272 274 276 280 283 284 284 284 284 284 284 284 284 285 285 285 286 287 289 290 292 292 292 293 293 293 293 294 294 295 296 295 295 296 293 293 295 295 293 293 295 299 298 299 299 300 299 299 300 299 298 298 300 300 298 298 299 299 301
262 263 263 263 264 264 264 264 265 265 266 266 266 267 268 268 271 272 273 275 277 282 284 284 284 284 284 284 285 285 286 286 287 288 290 292 292 292 293 293 293 293 294 295 294 295 297 297 297 296 294 294 294 294 295 293 296 300 298 297 298 298 298 297 297 298 299 299 299 299 297 297 298 299
261 262 263 263 264 264 264 264 265 265 266 266 266 267 267 267 269 270 271 273 275 279 283 285 285 285 285 285 285 286 286 286 287 288 290 292 292 292 293 293 292 294 294 295 295 295 297 297 297 297 296 294 294 293 294 293 295 298 301 298 297 298 297 297 297 297 299 300 299 300 299 298 298 298
261 261 262 262 263 264 265 265 265 265 265 266 266 267 267 268 269 270 271 272 273 276 279 283 285 285 285 285 285 285 286 287 288 289 290 292 292 292 293 293 292 293 294 295 295 295 297 298 297 297 297 295 294 294 291 291 295 297 297 299 297 296 297 297 296 296 298 300 300 300 300 299 298 298
261 261 261 262 263 263 264 265 265 265 265 266 266 266 267 267 268 269 269 270 271 273 275 277 282 285 285 285 286 286 286 287 288 289 291 291 292 292 293 293 293 293 294 293 295 295 297 297 298 298 298 297 296 296 295 294 295 298 297 297 298 297 297 298 297 298 298 298 299 299 296 295 295 292
260 261 261 262 263 263 264 265 265 265 265 266 266 266 267 266 267 267 268 269 270 271 271 274 278 282 285 286 286 286 287 288 289 290 291 292 292 292 293 293 293 293 293 292 293 294 296 297 297 299 299 300 300 299 296 294 294 296 295 294 296 298 298 299 298 298 297 299 298 295 293 295 294 294
260 260 261 262 263 263 263 264 265 265 265 266 266 267 267 267 266 267 268 268 269 268 269 271 274 279 284 286 286 287 287 288 290 291 291 292 291 292 291 291 293 293 292 291 293 293 295 298 298 297 296 293 293 295 295 293 292 293 295 295 293 294 296 296 300 298 297 295 296 295 294 294 293 293
259 259 260 261 262 263 263 264 265 265 265 266 266 266 266 267 267 269 268 268 267 268 268 269 271 274 279 285 287 287 288 289 290 291 291 292 292 291 291 291 293 293 293 292 293 294 296 295 292 291 293 296 297 295 293 293 292 293 295 295 294 293 294 294 295 296 299 297 296 295 294 293 293 293
259 259 260 261 262 263 263 264 265 265 265 266 266 266 266 267 267 267 266 266 266 266 266 267 269 271 273 279 287 289 289 290 291 291 291 291 292 291 291 292 292 293 294 294 295 295 291 291 293 295 297 297 297 297 294 294 294 294 294 294 293 294 295 293 295 294 295 295 296 297 298 296 294 292
258 259 260 261 262 263 263 263 264 266 266 266 266 266 266 266 266 266 266 266 265 265 266 266 267 268 271 274 281 289 290 291 291 291 290 291 291 292 291 292 292 292 294 294 293 291 292 294 294 296 296 296 296 296 295 294 294 293 294 294 292 293 293 294 293 293 294 295 295 296 296 296 297 297
258 259 260 261 262 263 263 263 264 266 266 266 266 266 266 266 266 266 266 266 265 265 265 266 266 268 269 272 276 285 289 289 290 291 291 291 291 291 291 292 292 291 292 292 291 291 293 293 294 295 296 296 296 296 295 294 294 292 292 291 290 292 293 293 293 293 295 295 295 292 292 293 290 290
Wind_Speed
16 16 18 18 17 16 17 19 18 18 18 17 18 17 17 17 18 18 17 19 17 16 16 16 15 17 18 17 17 19 19 20 19 18 17 16 15 18 20 21 24 30 35 33 33 33 33 32 31 31 30 33 32 32 35 39 38 39 38 37 36 37 37 35 35 34 34 34 33 33 34 34 34 33
15 17 18 19 18 19 18 17 18 18 18 17 18 17 19 18 20 19 20 21 14 16 16 16 16 14 18 16 16 15 17 19 15 11 14 13 12 13 15 20 24 27 34 34 33 33 33 33 31 31 31 33 40 40 41 39 40 38 40 40 39 39 37 37 36 35 34 34 33 34 33 34 33 34
16 18 19 19 18 18 18 18 18 18 18 17 18 17 18 18 19 21 20 21 19 13 17 17 19 17 18 18 15 13 15 16 17 16 14 13 15 17 17 19 20 25 29 31 32 32 33 33 31 30 31 33 36 45 45 40 39 36 34 39 40 39 37 36 36 36 35 34 33 34 33 33 32 34
16 18 19 19 17 17 16 17 17 17 17 17 17 17 17 18 19 18 20 22 25 15 17 18 20 21 20 20 18 17 17 17 18 16 15 15 17 14 13 17 20 23 27 32 31 31 32 32 31 31 31 33 34 34 39 41 39 37 35 34 37 39 37 36 36 35 34 34 33 34 34 33 32 34
17 19 19 19 19 18 18 17 16 16 17 17 17 16 16 18 19 18 20 22 23 18 17 18 19 20 19 19 20 20 19 18 17 20 17 15 14 14 13 13 17 22 26 31 33 32 31 31 31 30 30 32 33 35 35 37 40 41 39 38 36 37 38 36 36 35 35 35 34 34 34 32 32 34
16 17 19 19 19 18 19 18 17 17 17 18 17 18 17 17 17 17 18 20 20 22 18 18 19 19 20 21 20 20 22 21 17 19 16 11 12 13 13 12 12 20 24 31 35 33 32 32 31 30 30 31 30 35 40 39 40 41 42 41 38 38 39 37 37 35 35 35 34 34 33 32 33 33
18 18 18 19 17 15 17 18 18 17 18 17 20 21 18 19 19 18 19 18 18 21 20 18 19 18 17 18 18 20 20 19 17 19 17 12 10 11 14 13 11 18 23 29 36 35 33 32 31 30 31 30 32 30 36 43 40 40 41 41 41 40 39 38 37 36 35 35 34 34 34 33 33 32
17 18 19 18 18 17 18 18 17 17 18 17 17 20 19 19 21 18 17 20 20 19 20 19 18 15 15 16 17 18 16 17 15 14 13 12 13 13 13 13 12 15 23 27 34 35 34 31 30 30 30 32 32 32 31 36 41 39 38 38 38 39 39 38 37 36 35 35 35 35 35 34 33 32
18 18 19 20 19 18 19 18 18 17 21 18 17 18 17 17 17 16 17 18 18 20 22 20 17 17 16 16 17 16 17 13 14 14 16 13 12 13 14 13 12 17 25 27 33 32 32 30 29 29 31 31 34 36 35 32 36 38 37 36 36 37 38 38 37 36 35 34 34 35 35 35 33 33
17 19 19 20 19 20 19 19 18 19 20 19 19 20 19 20 17 18 19 19 19 20 20 20 19 16 15 15 16 15 15 13 13 12 12 12 11 12 14 13 11 10 12 13 21 27 27 29 29 29 30 32 34 35 36 41 36 37 38 38 36 36 37 38 37 36 36 35 33 33 35 36 35 34
19 20 21 21 20 21 20 20 20 20 20 19 22 20 20 19 19 18 16 17 20 20 19 18 18 17 16 16 18 13 14 12 11 12 11 11 9 9 12 14 12 10 13 19 25 22 21 23 22 28 30 31 32 35 36 33 47 46 43 39 38 38 38 38 37 37 37 36 35 33 34 34 34 33
20 20 22 21 22 21 22 20 21 20 19 18 20 19 19 18 19 17 16 16 17 18 18 17 16 15 15 14 14 14 12 11 12 10 10 11 11 10 10 13 13 12 11 14 15 20 22 22 24 27 30 31 32 31 30 31 29 43 45 43 42 40 39 38 38 37 37 37 36 34 33 33 33 33
20 21 20 21 22 23 28 31 28 27 25 18 18 20 19 17 18 18 16 15 15 16 17 17 15 15 15 16 12 10 12 11 12 9 7 11 11 10 11 13 13 12 13 14 15 16 18 16 16 15 15 21 28 27 29 28 29 30 37 40 39 39 38 38 38 37 36 35 35 34 33 33 32 31
21 19 22 19 31 32 32 32 34 33 34 35 27 21 21 19 18 17 17 16 15 15 16 16 15 16 16 15 13 14 13 11 10 9 9 11 11 10 12 12 12 11 13 15 14 13 14 15 15 15 16 17 22 18 22 21 25 27 31 35 36 36 36 36 37 36 35 35 34 34 33 32 31 30
18 21 19 21 24 26 29 29 37 35 34 34 35 37 35 30 23 17 17 18 16 17 17 14 15 16 17 15 12 14 13 9 9 9 9 10 10 10 10 12 12 11 12 15 12 13 14 16 15 15 16 17 18 17 18 30 36 35 33 33 35 35 35 36 37 37 36 35 35 35 35 33 32 30
18 19 18 19 17 19 21 22 23 27 33 33 33 35 34 34 36 33 25 20 17 18 17 16 15 15 16 16 13 12 10 9 9 9 9 9 10 12 11 11 13 10 8 14 12 13 12 15 15 16 17 16 18 20 25 33 36 41 39 37 37 36 35 36 36 36 35 34 33 34 35 34 33 32
21 19 19 19 18 17 26 23 21 23 23 29 33 33 34 34 35 34 36 34 25 19 18 18 18 17 15 15 11 7 7 7 10 8 7 8 9 11 12 12 12 14 11 14 13 12 12 14 15 16 16 17 18 22 29 36 36 37 39 38 38 38 37 35 36 35 35 33 32 31 33 33 32 32
21 21 20 20 19 18 20 20 21 21 23 22 22 21 21 21 26 31 34 35 36 30 22 19 20 20 17 16 12 9 5 6 8 7 8 8 9 11 13 15 15 15 13 17 11 11 13 15 15 16 15 17 20 20 31 41 41 40 39 36 36 38 37 37 37 36 34 33 32 31 31 31 31 30
21 21 20 21 21 20 20 18 21 22 21 20 18 18 19 20 21 21 21 20 18 18 18 22 23 21 20 19 17 15 10 9 8 7 9 9 9 9 12 14 16 17 16 19 15 13 12 13 15 16 15 17 19 19 32 41 42 42 41 39 37 36 36 36 36 36 35 33 33 32 30 30 30 29
21 20 20 20 21 21 21 24 30 28 22 19 19 17 18 19 19 19 21 24 24 22 19 17 17 18 19 20 18 16 10 9 8 7 6 5 6 8 11 13 13 12 13 16 17 9 13 14 16 15 15 17 17 20 22 34 40 42 41 40 38 37 36 37 36 36 36 35 34 32 32 31 31 31
22 21 21 20 20 21 21 26 30 31 29 21 19 19 18 16 16 16 15 23 28 30 32 33 33 31 28 28 29 27 24 15 9 6 7 9 6 8 11 13 11 14 13 12 17 11 13 13 14 14 15 18 17 19 21 24 34 38 39 39 39 37 36 37 36 36 36 35 34 33 32 31 30 30
20 22 30 27 23 22 22 28 31 32 27 20 20 20 19 17 15 16 13 16 16 26 28 28 32 32 29 26 25 25 25 24 17 10 12 6 4 10 10 13 12 14 15 14 13 12 14 14 13 15 11 13 15 19 20 23 27 35 34 38 38 38 37 36 36 35 34 34 34 33 32 31 30 24
19 20 21 28 26 25 27 33 32 33 28 21 19 19 17 17 16 18 15 17 16 15 14 13 13 14 21 19 16 14 17 20 18 13 11 6 9 12 12 12 11 12 15 13 15 14 12 17 14 16 13 11 7 16 19 21 21 21 21 24 26 34 35 36 35 36 36 34 34 33 32 31 28 16
20 20 19 21 26 29 31 31 32 31 32 23 18 15 16 15 18 16 12 14 15 16 14 12 10 11 10 10 11 13 13 14 14 12 10 10 9 10 13 11 9 11 13 7 14 13 12 15 15 18 19 16 12 12 17 19 21 20 20 20 18 28 31 32 28 33 33 32 33 32 32 32 28 17
20 19 18 17 23 30 31 32 32 32 32 30 21 16 14 16 17 15 11 14 22 16 14 12 11 10 9 10 10 12 11 10 9 10 11 11 12 11 10 10 12 12 15 14 16 11 14 15 18 15 17 16 16 18 16 18 18 19 20 21 20 20 19 20 18 21 27 31 31 32 31 32 31 22
18 19 19 18 24 32 33 33 33 34 32 33 21 19 26 27 27 18 14 12 13 13 13 13 13 13 13 13 13 12 11 11 10 11 11 11 13 13 12 13 12 10 14 14 20 15 18 17 20 17 12 14 15 16 14 14 16 17 19 19 20 21 21 20 19 19 19 19 20 24 28 33 31 29
19 18 20 22 31 35 38 38 37 35 35 29 21 28 28 26 27 23 13 12 14 13 12 11 12 13 13 13 13 12 10 10 10 10 10 10 11 12 14 15 14 15 15 15 11 13 19 18 18 22 19 19 22 18 20 17 12 13 16 16 17 17 18 18 19 19 18 19 19 30 30 31 30 28
18 18 19 23 37 38 35 36 35 33 31 23 28 29 28 24 22 13 11 12 12 13 12 13 12 13 13 12 12 11 10 10 9 10 10 11 12 13 14 14 15 15 15 17 15 14 17 22 19 18 23 22 23 23 19 16 19 20 20 17 17 17 17 18 17 17 16 17 17 19 17 17 19 20
17 24 34 35 34 34 34 35 30 22 25 28 28 29 29 24 11 10 9 12 12 13 13 13 13 13 12 12 11 9 9 9 9 8 9 10 12 13 14 14 12 11 13 15 15 13 14 20 23 15 15 21 23 22 23 21 19 19 20 20 16 16 17 17 18 18 17 17 17 18 19 19 19 19
29 29 30 33 31 28 27 22 15 11 10 18 22 24 22 12 11 10 10 11 11 12 12 12 13 13 11 10 9 9 9 8 9 8 9 10 12 12 12 11 11 10 12 13 14 9 10 16 21 22 18 16 18 21 19 20 19 18 20 22 19 15 16 17 18 17 16 17 17 18 17 18 18 16
17 21 22 20 25 22 28 25 24 20 16 14 12 10 11 10 10 10 10 11 11 12 12 11 10 11 11 10 9 8 7 8 8 7 9 11 13 11 11 10 9 9 11 10 10 7 5 6 13 21 22 17 12 14 17 19 20 19 17 16 18 18 16 15 16 17 17 16 14 14 14 14 15 17
17 17 19 20 15 15 14 15 13 13 13 11 9 9 9 9 10 10 13 13 12 12 10 10 8 9 10 11 10 7 6 7 8 8 10 12 12 11 9 9 9 8 8 5 4 1 2 4 6 8 14 19 19 13 11 14 17 18 18 16 17 14 15 19 19 17 18 16 14 14 14 15 16 16
14 13 14 14 14 14 15 14 14 14 13 12 12 13 10 9 10 9 9 11 11 11 11 12 12 12 10 11 9 9 8 9 9 9 11 12 12 10 9 10 7 8 9 9 7 4 3 4 4 5 5 7 13 19 19 16 13 14 17 16 14 12 13 13 14 13 14 15 15 14 14 14 14 16
12 13 13 13 14 15 14 14 14 14 13 14 13 11 13 12 11 10 11 10 9 10 11 10 11 11 11 11 11 10 11 9 9 11 12 11 10 10 10 10 8 7 11 10 10 8 6 7 10 10 10 9 8 4 11 19 19 16 14 15 16 16 14 14 14 16 18 18 18 16 14 12 12 14
12 14 14 14 15 14 13 13 14 13 13 13 12 12 12 10 11 12 11 10 10 11 10 9 9 10 11 12 11 11 10 9 9 10 9 10 9 10 10 10 9 8 11 10 11 11 12 12 11 9 9 9 8 6 12 2 14 13 13 13 14 14 13 14 14 15 15 13 13 15 13 12 12 12
13 13 13 13 13 14 14 14 13 13 12 12 11 12 12 11 11 11 10 12 13 12 11 10 10 11 12 11 12 11 11 9 9 10 9 9 9 9 9 10 10 9 11 13 10 11 15 15 15 14 13 11 11 10 6 9 4 15 15 12 10 12 12 12 14 14 15 14 15 17 17 17 16 15
13 13 13 14 14 13 14 13 13 13 13 13 12 11 11 11 12 11 12 14 12 11 11 11 11 10 10 9 9 9 10 9 9 10 10 9 9 9 9 10 9 11 10 15 11 12 15 16 16 17 16 15 15 16 11 4 9 14 15 16 12 14 15 13 14 15 15 16 16 16 16 16 15 13
13 13 13 14 14 14 14 14 14 13 13 13 13 13 11 11 11 12 12 10 10 10 11 10 10 9 9 8 9 10 9 9 10 11 9 9 9 10 9 10 9 10 10 13 14 13 15 17 18 17 17 18 18 17 12 5 9 11 13 15 16 14 14 14 14 16 15 14 15 14 11 13 15 14
13 13 13 14 14 14 14 15 15 15 15 14 14 14 13 13 12 12 11 10 10 10 11 12 11 9 9 9 9 9 8 8 10 11 9 9 10 10 9 10 11 9 10 12 13 13 14 17 18 18 19 19 20 20 19 19 20 16 15 19 16 15 17 19 19 16 15 15 12 9 5 5 10 15
14 12 12 13 14 14 13 13 14 16 14 14 14 13 13 14 13 12 11 11 11 11 11 11 12 12 10 9 9 9 10 12 12 10 9 10 10 11 9 9 12 11 9 13 14 13 13 16 18 18 20 19 14 10 9 6 6 6 7 3 18 23 19 17 18 17 16 14 13 13 12 13 11 8
14 13 13 13 13 14 14 13 13 13 14 14 14 14 13 13 13 12 12 13 12 12 11 11 12 13 11 9 9 9 10 11 10 9 9 9 10 10 11 10 11 12 12 12 15 16 16 18 21 23 15 11 16 16 13 12 12 11 11 6 5 13 15 16 16 17 14 12 14 14 13 14 13 12
13 13 13 13 13 13 14 14 12 11 12 12 13 14 13 12 13 19 15 15 13 12 10 10 11 11 12 10 9 10 12 11 9 9 9 9 10 11 12 11 10 12 13 13 15 17 14 6 8 12 14 15 14 16 16 17 17 16 14 9 6 12 16 16 15 16 17 16 14 13 11 8 8 11
13 13 13 14 13 13 13 13 13 14 14 14 14 14 13 15 15 15 13 13 12 11 10 10 10 10 11 13 11 11 11 11 9 9 9 9 10 10 10 11 10 12 15 14 13 9 8 10 12 14 14 14 14 16 18 19 16 14 12 11 11 9 11 15 17 16 20 26 26 21 18 18 14 14
12 13 13 13 13 14 13 14 13 14 17 16 16 15 13 13 14 15 13 13 13 12 12 11 11 11 12 13 14 11 9 9 8 8 9 9 8 10 11 13 12 11 11 11 10 7 9 11 11 12 13 13 14 15 15 14 13 13 15 14 10 12 13 9 7 9 12 18 20 23 25 28 23 17
12 12 13 13 13 14 13 13 12 12 14 14 13 13 12 11 13 14 14 13 12 13 12 11 11 11 12 12 12 11 8 7 7 7 7 8 8 8 9 11 12 11 8 9 12 12 11 10 10 10 12 13 13 15 14 16 16 14 13 14 14 14 13 13 13 12 13 11 14 6 10 5 12 12
Wind_Direction
264 263 262 264 265 264 267 267 263 262 257 258 255 253 251 254 258 271 272 268 269 258 255 265 259 256 258 257 254 258 259 258 253 253 251 249 249 248 249 251 251 243 228 215 212 212 215 216 215 215 211 201 198 194 186 179 183 182 182 184 182 181 181 182 181 180 182 183 185 186 186 188 187 187
268 267 266 273 267 270 268 264 262 260 255 256 254 255 253 252 255 263 269 273 264 269 261 259 265 263 264 260 257 258 255 256 265 279 277 276 272 274 258 250 251 246 233 218 213 212 214 215 214 213 211 205 196 191 188 185 182 186 183 181 182 179 180 180 179 180 180 183 183 182 188 186 185 185
273 271 270 268 264 264 265 265 263 259 257 256 255 255 253 253 252 258 263 271 266 258 267 263 263 268 277 276 271 262 259 260 262 265 273 277 281 281 281 277 267 254 241 224 211 211 213 213 212 211 207 205 208 191 184 185 182 183 188 181 178 178 178 179 178 178 180 183 182 182 186 185 183 184
271 272 267 265 263 264 265 264 261 260 258 256 255 254 255 254 252 256 261 262 270 264 265 267 267 262 262 262 265 262 260 263 259 262 267 272 276 274 271 264 264 260 246 233 217 211 211 211 210 209 203 201 200 200 185 180 179 180 183 184 179 175 177 177 176 177 180 182 182 181 184 185 180 182
274 272 267 265 265 264 263 263 263 261 260 257 256 254 254 254 251 250 254 259 266 268 260 262 262 261 261 268 267 268 264 263 266 264 262 264 270 275 272 266 263 260 250 236 223 213 209 210 210 206 203 200 194 191 189 183 179 177 178 181 182 175 174 177 176 177 179 180 181 181 184 183 178 179
276 274 269 267 268 266 264 264 264 263 263 259 255 253 253 259 260 250 249 254 262 268 266 261 259 259 252 255 256 259 261 261 259 262 263 261 267 273 271 267 266 265 253 237 223 214 209 210 209 206 203 198 204 193 185 184 182 178 177 178 180 177 174 176 176 177 178 179 180 181 181 179 177 178
279 272 270 270 270 267 266 265 263 263 264 262 258 256 257 256 256 259 262 266 262 259 261 257 259 256 254 254 258 257 254 253 257 262 263 264 267 265 266 265 266 266 261 241 223 211 207 207 208 206 201 203 196 205 195 182 183 181 178 178 177 177 173 174 175 176 178 179 180 180 178 176 177 178
276 274 272 270 271 269 266 264 264 262 262 263 262 260 258 258 257 255 253 254 265 272 272 265 266 260 256 254 256 259 252 253 251 255 265 268 267 270 269 264 262 264 263 248 226 208 204 203 205 203 203 200 199 194 199 188 178 179 179 177 178 175 172 172 174 175 176 178 179 179 177 176 177 177
273 272 270 271 268 267 266 263 262 262 263 261 261 262 263 262 264 264 257 252 250 258 263 267 257 255 258 262 261 256 252 248 252 258 263 267 265 266 266 265 259 261 264 249 230 212 201 201 202 202 201 200 197 192 186 191 181 176 177 177 178 176 171 171 172 174 175 177 177 177 176 176 176 176
272 270 269 269 268 265 263 263 263 263 266 266 263 262 263 262 261 262 265 266 260 251 255 260 267 257 254 259 260 250 244 251 259 263 264 265 262 267 270 262 263 263 262 250 227 211 203 200 199 199 199 197 193 194 190 180 182 177 176 178 178 176 173 171 171 173 174 175 176 175 175 175 176 176
265 269 265 263 261 262 259 260 259 260 261 267 263 262 264 264 263 262 261 260 268 267 259 255 254 260 258 255 257 248 248 248 253 265 273 271 263 263 263 268 265 259 262 249 225 208 198 197 199 196 195 194 193 191 189 201 179 177 176 177 175 174 174 171 170 171 173 174 175 174 174 174 175 175
271 266 264 260 258 256 257 253 259 254 257 262 267 263 264 266 264 262 263 263 261 267 271 263 258 254 258 254 248 253 244 246 254 250 260 271 276 270 263 259 267 270 258 249 218 202 196 195 193 198 195 194 190 191 190 188 204 180 174 174 173 173 172 170 168 170 172 173 173 173 173 173 173 173
268 273 266 266 260 253 253 248 251 256 253 255 263 261 260 260 259 257 258 262 263 264 269 274 272 267 259 254 247 242 241 232 246 255 252 269 273 277 279 273 261 260 263 245 218 200 193 193 194 192 196 195 191 187 185 180 184 192 176 170 170 169 170 169 167 168 169 170 170 171 172 172 172 171
269 262 271 261 269 260 257 252 253 254 260 257 256 262 260 258 261 260 258 255 259 263 261 258 264 266 261 250 241 247 249 253 256 262 264 267 270 267 267 271 263 255 254 244 216 202 192 188 190 192 193 193 188 187 182 179 171 180 177 167 165 167 167 167 167 167 168 168 168 168 169 170 171 170
277 271 271 269 271 267 269 260 255 252 256 263 258 260 260 258 259 258 258 256 256 260 261 260 260 268 277 268 247 248 255 254 257 261 264 265 268 262 263 270 276 240 237 242 214 200 190 183 189 193 193 189 186 183 183 172 167 170 171 168 166 166 167 168 168 167 169 169 168 168 168 169 169 170
282 284 281 280 276 273 270 265 259 254 255 259 263 259 263 263 260 259 260 263 261 256 259 259 256 259 263 277 261 249 245 254 261 263 270 271 273 270 263 261 262 278 249 236 220 197 191 182 183 190 191 183 179 178 172 170 170 167 168 169 168 166 168 168 167 167 168 169 169 169 168 168 168 169
288 286 284 282 276 274 273 271 266 263 257 259 261 263 259 264 262 262 261 260 260 261 259 256 260 255 264 275 275 266 255 259 267 281 281 284 290 286 271 254 266 272 263 241 217 200 186 182 183 188 185 177 175 172 169 167 168 168 166 167 167 166 166 168 166 166 168 168 170 170 170 169 169 170
288 286 285 284 281 278 277 274 271 270 265 266 264 264 261 260 259 259 260 258 259 258 256 257 254 256 256 263 276 278 274 260 262 270 276 285 285 287 287 299 294 285 274 245 213 200 186 182 181 185 179 174 171 172 170 167 167 166 164 166 167 166 166 167 166 165 167 168 168 171 171 170 168 169
287 285 282 281 280 279 276 272 272 272 269 267 265 261 257 254 256 258 260 259 256 252 246 250 252 253 254 257 264 273 264 253 252 252 264 272 276 284 288 286 273 271 265 253 216 202 181 175 180 182 172 171 169 169 170 170 167 165 164 165 167 166 165 165 164 164 166 168 169 169 170 169 168 169
287 285 282 281 279 277 276 274 273 273 272 267 262 257 252 253 253 254 259 260 260 258 256 256 251 246 246 249 254 255 254 256 256 256 254 243 264 285 288 279 281 269 264 244 220 183 180 178 178 175 168 164 165 165 168 171 168 165 163 164 165 165 166 164 164 165 166 168 168 168 169 169 169 170
289 286 282 279 280 278 276 275 275 274 273 269 265 263 255 245 247 250 259 263 264 259 251 252 257 252 245 243 243 243 244 248 244 242 253 259 265 271 280 280 284 279 274 251 216 182 171 178 172 165 166 165 161 162 166 169 168 165 163 164 164 165 166 165 164 166 167 167 167 168 169 168 167 166
290 287 286 283 281 279 277 276 274 273 272 269 265 263 258 251 246 252 254 263 262 266 264 253 249 250 249 248 250 252 254 254 255 251 251 261 279 266 263 274 278 284 281 251 208 177 173 162 169 160 157 155 163 162 165 166 167 165 165 166 166 165 165 165 165 166 167 166 166 167 167 167 164 164
292 291 289 286 283 281 279 278 277 275 272 264 260 258 253 248 247 254 261 263 262 257 252 257 262 252 242 240 243 242 242 250 251 244 246 248 238 258 264 260 277 288 275 240 202 178 163 162 169 151 147 154 153 162 160 164 163 165 164 166 167 167 165 166 166 167 167 167 166 166 166 164 162 165
299 295 293 291 287 285 283 281 280 277 275 273 264 252 247 240 247 250 251 255 260 268 263 255 251 252 242 237 239 241 241 237 232 233 230 233 234 245 257 252 240 252 268 276 212 178 160 160 165 167 157 145 156 163 159 161 162 161 161 162 167 167 164 163 165 166 166 166 167 166 165 164 164 164
302 300 297 294 291 289 287 285 283 281 278 274 272 263 239 235 240 238 241 251 256 259 263 264 264 261 255 248 240 238 234 228 229 231 229 229 232 236 245 242 242 248 258 265 233 174 166 167 164 173 161 157 147 151 165 158 160 161 163 163 162 165 163 165 163 166 166 167 167 166 166 168 169 168
302 300 299 298 294 292 289 286 283 281 278 274 272 267 266 253 242 239 238 243 246 246 249 245 244 246 245 250 248 244 236 233 232 234 234 233 236 238 241 240 243 250 255 260 234 194 158 172 168 162 154 138 150 145 146 158 158 159 161 165 164 164 165 163 166 167 167 168 169 170 171 172 173 170
304 302 300 298 296 295 292 287 281 276 273 274 271 270 266 259 248 243 242 240 242 244 247 248 245 239 237 238 243 241 238 235 235 241 239 246 249 251 250 242 238 242 251 274 259 216 171 164 172 161 162 153 150 158 153 152 158 156 157 161 160 164 165 163 165 166 167 169 171 172 172 174 173 170
304 304 304 303 304 304 303 298 288 277 268 263 266 267 269 262 250 243 240 241 244 245 242 245 247 245 237 237 238 236 240 248 243 247 250 256 259 259 258 247 238 238 247 260 264 233 191 163 171 173 155 155 152 157 167 159 154 162 162 161 162 163 165 165 165 164 167 166 166 169 166 173 175 170
307 314 313 310 309 308 310 312 302 280 266 262 263 264 264 256 240 244 240 242 237 236 239 243 246 243 243 241 245 246 247 248 250 251 259 261 262 261 254 248 240 239 242 249 246 238 210 170 160 159 157 157 158 161 158 162 159 162 160 156 162 165 165 168 165 166 166 166 167 169 175 175 176 174
320 318 313 313 312 314 317 321 309 274 274 261 260 259 256 242 239 235 240 247 247 243 242 243 242 245 246 244 241 237 234 238 243 247 259 266 263 252 245 241 238 239 246 240 226 245 226 179 154 152 157 165 161 155 154 149 160 162 160 165 163 157 168 166 166 164 164 167 169 173 176 175 173 171
324 317 316 314 315 315 320 325 336 333 280 269 267 253 243 239 238 236 238 239 243 245 243 239 238 245 245 243 236 227 223 234 241 239 248 252 254 246 233 230 237 234 234 228 206 222 220 170 156 152 152 153 151 154 152 152 151 157 166 161 155 165 166 164 166 165 166 167 167 166 166 168 171 175
322 319 316 320 322 324 331 339 341 346 345 324 284 250 232 230 226 233 238 242 246 252 254 252 248 242 239 239 237 233 234 240 244 239 240 241 246 236 222 219 225 216 205 205 187 192 141 159 146 144 145 151 151 148 142 154 156 158 160 161 166 165 166 166 165 167 165 158 157 165 169 170 173 178
319 324 328 328 333 340 342 343 342 345 343 345 346 336 307 262 241 230 229 238 246 245 241 246 252 254 251 250 246 243 244 244 245 241 244 238 236 226 211 216 210 189 175 177 173 146 115 102 62 77 114 139 152 150 149 154 163 162 162 160 158 147 158 166 160 155 150 156 167 164 169 173 174 175
334 336 334 340 341 341 346 345 345 342 342 344 340 334 336 333 314 270 247 240 245 246 246 246 244 247 250 252 249 247 247 247 246 244 240 237 222 214 203 205 200 196 176 178 169 156 114 81 79 65 63 63 59 109 158 163 159 163 164 164 160 161 167 162 159 157 166 171 165 163 166 174 177 176
349 346 341 338 341 342 341 345 343 338 339 340 334 333 330 323 328 333 312 273 243 238 250 247 241 239 242 246 248 249 248 249 249 253 236 226 212 205 200 197 187 196 175 172 170 154 135 138 125 102 93 94 94 42 20 91 160 156 153 162 167 156 156 161 155 160 163 162 158 164 168 166 174 181
354 351 341 335 337 340 343 340 339 340 338 333 333 332 328 324 325 321 319 319 314 284 249 231 233 238 244 245 248 249 251 250 253 255 240 214 207 201 197 196 182 191 177 162 167 157 155 154 154 150 144 141 144 145 159 350 144 159 155 157 155 152 155 154 155 156 160 163 170 168 169 174 178 179
350 346 340 338 335 336 338 339 339 337 335 334 333 330 323 320 317 312 311 310 296 300 286 252 240 234 233 234 240 244 246 247 251 252 236 211 198 196 196 188 184 178 185 163 162 163 158 160 164 162 158 156 159 167 161 116 166 176 163 157 156 159 155 153 152 161 171 168 171 173 174 173 175 174
348 342 340 337 334 334 337 337 334 334 336 335 330 327 328 320 313 312 313 308 308 311 310 288 250 239 239 235 242 244 245 243 247 246 228 206 195 195 196 179 181 178 182 165 161 168 165 162 166 169 166 167 169 167 153 137 144 185 188 160 158 156 154 153 160 167 171 172 171 175 165 167 174 176
350 343 339 335 336 332 332 338 338 333 332 332 333 332 327 324 321 317 316 315 315 313 310 305 293 260 241 239 238 244 247 248 243 237 221 203 195 193 194 179 171 179 172 167 162 168 170 169 170 171 175 175 176 174 168 165 176 171 179 177 157 156 166 165 169 170 168 170 169 145 118 97 83 108
341 336 333 331 330 331 325 325 335 337 331 329 328 326 329 327 325 321 319 321 319 315 308 302 296 287 265 245 240 242 243 243 239 229 214 202 194 192 190 184 172 167 171 167 162 170 174 179 177 177 181 184 174 147 125 98 72 107 126 151 177 169 173 171 167 164 168 168 151 146 142 134 145 152
340 338 335 330 326 327 331 327 322 329 330 327 327 330 326 324 326 323 323 320 317 313 309 306 309 303 280 253 242 237 241 237 230 216 210 202 194 192 187 184 176 164 168 176 168 167 182 188 190 180 156 107 105 104 113 122 139 150 167 162 163 172 160 166 164 164 158 146 149 151 146 151 144 148
333 334 329 327 323 323 325 324 325 323 327 327 326 326 327 326 325 328 325 321 317 313 308 308 310 313 308 279 246 240 234 231 217 206 201 200 193 190 183 182 182 169 166 177 181 182 177 142 107 102 121 136 139 149 158 161 164 172 170 152 141 154 161 166 164 160 151 154 151 149 139 113 126 153
332 334 331 326 323 321 321 319 323 333 332 330 327 322 325 330 329 333 333 326 322 317 313 311 311 310 311 304 272 237 231 222 208 198 194 197 192 182 179 182 188 183 177 178 185 164 115 123 137 147 155 159 161 162 172 175 168 158 151 155 161 161 162 166 163 166 171 171 170 169 169 164 157 185
326 330 330 325 322 323 322 320 318 327 332 330 329 325 317 320 333 333 328 329 323 319 316 312 312 309 306 305 295 256 225 217 199 194 188 190 188 182 180 181 184 191 186 168 150 135 154 159 161 161 156 167 168 173 171 159 159 161 166 162 148 152 160 157 135 151 183 205 197 179 175 173 178 189
323 325 326 321 321 323 321 320 314 321 331 326 321 322 325 318 322 331 332 326 325 320 318 316 311 305 301 296 299 280 234 212 196 188 182 181 185 184 181 180 178 180 175 153 150 162 166 159 165 176 175 169 173 177 165 162 165 162 157 149 156 164 161 161 162 169 180 181 207 147 63 76 40 63